Flag for China Weather past 2 weeks in Shantou, Guangdong, China

Now
72 °F

Passing clouds.


Feels Like: 71 °F
Forecast: 72 / 84 °F
Wind: 3 mph from East

Location: Shantou Airport

Current Time: Oct 25, 2014 at 12:39:53 AM

Latest Report: Oct 25, 2014 at 12:00 AM


Visibility: 4 mi

Pressure: 30.07 "Hg

Humidity: 83%

Dew point: 66 °F

Location of ShantouLocation

Historic Weather in Shantou — Graph

°F

Shantou temperature yesterday

Maximum temperature yesterday: 81 °F (at 1:00 PM)
Minimum temperature yesterday: 70 °F (at 1:00 AM)
Average temperature yesterday: 75 °F

Past Weeks' High & Low Weather Summary

 TemperatureHumidityPressure
High91 °F (Oct 11, 2:00 PM)100% (Oct 21, 2:00 AM)30.15 "Hg (Oct 21, 2:00 AM)
Low63 °F (Oct 17, 4:00 AM)37% (Oct 17, 2:00 PM)29.74 "Hg (Oct 10, 3:00 PM)
Average76 °F70%30.00 "Hg
* Reported Oct 9 11:00 PM — Oct 24 11:00 PM, Shantou, Weather by CustomWeather, © 2014

Note: Actual official high and low records may vary slightly from our data, if they occured in-between our weather recording intervals... More about our weather records

Advertising

Shantou weather history for previous 24 hours

 ConditionsComfort  
Time TempWeatherWind HumidityBarometerVisibility
11:00 PM
Oct 24
72 °FPassing clouds.3 mph83%30.07 "Hg4 mi
10:00 PM73 °FPassing clouds.3 mph78%30.07 "HgN/A
9:00 PM75 °FPassing clouds.3 mph74%30.07 "HgN/A
8:00 PM75 °FPassing clouds.6 mph74%30.04 "HgN/A
7:00 PM75 °FPassing clouds.3 mph74%30.04 "HgN/A
6:00 PM77 °FPassing clouds.6 mph65%30.01 "Hg5 mi
5:00 PM77 °FScattered clouds.6 mph69%30.01 "HgN/A
4:00 PM81 °FPassing clouds.3 mph54%29.98 "Hg5 mi
3:00 PM81 °FPassing clouds.3 mph54%29.98 "Hg4 mi
2:00 PM81 °FPassing clouds.1 mph54%30.01 "Hg4 mi
1:00 PM81 °FPassing clouds.1 mph54%30.01 "Hg5 mi
12:00 PM79 °FSunny.1 mph54%30.04 "Hg10 mi
11:00 AM77 °FPassing clouds.3 mph57%30.07 "HgN/A
10:00 AM75 °FPassing clouds.8 mph61%30.07 "HgN/A
9:00 AM75 °FScattered clouds.8 mph61%30.07 "HgN/A
8:00 AM72 °FPartly sunny.3 mph78%30.07 "Hg4 mi
7:00 AM72 °FPartly sunny.1 mph73%30.07 "Hg4 mi
6:00 AM72 °FPassing clouds.3 mph73%30.04 "HgN/A
5:00 AM72 °FPassing clouds.3 mph73%30.01 "HgN/A
4:00 AM72 °FPassing clouds.3 mph78%30.01 "HgN/A
3:00 AM72 °FPassing clouds.3 mph78%30.04 "Hg5 mi
2:00 AM72 °FPassing clouds.6 mph78%30.01 "Hg6 mi
1:00 AM70 °FPassing clouds.3 mph88%30.04 "Hg5 mi
12:00 AM72 °FPassing clouds.6 mph78%30.04 "Hg5 mi
Weather by CustomWeather, © 2014

See weather overviewHow to use our weather pages